FW8113 Weather Reports


Display with metric or nautical units.
time (UTC)temp
F
wind
direction
speed
MPH
gust
MPH
rain 1hr
in
rain 24hr
in
rain mn
in
humidity
%
barometer
mb
20260508195518 56 154 3.0 9.0 0.00 0.00 0.00 49 1011.4
20260508195014 55 161 2.0 2.0 0.00 0.00 0.00 50 1011.4
20260508194512 56 355 3.0 5.0 0.00 0.00 0.00 49 1011.4
20260508194009 57 23 5.0 7.0 0.00 0.00 0.00 47 1011.4
20260508193505 56 182 2.0 3.0 0.00 0.00 0.00 49 1011.0
20260508193002 56 45 6.0 7.0 0.00 0.00 0.00 48 1011.4
20260508192458 57 234 7.0 9.0 0.00 0.00 0.00 46 1011.4
20260508191955 58 77 0.0 2.0 0.00 0.00 0.00 44 1011.0
20260508191452 58 269 4.0 5.0 0.00 0.00 0.00 44 1011.0
20260508190949 59 250 3.0 7.0 0.00 0.00 0.00 45 1011.0
20260508190447 59 101 1.0 3.0 0.00 0.00 0.00 44 1011.0
20260508185942 58 103 0.0 0.0 0.00 0.00 0.00 46 1011.0
20260508185440 58 331 3.0 3.0 0.00 0.00 0.00 46 1011.4
20260508184937 57 47 6.0 9.0 0.00 0.00 0.00 46 1011.0
20260508184435 57 215 5.0 9.0 0.00 0.00 0.00 47 1011.4
20260508183931 58 258 4.0 5.0 0.00 0.00 0.00 48 1011.4
20260508183428 56 64 0.0 0.0 0.00 0.00 0.00 51 1011.4
20260508182923 55 179 0.0 0.0 0.00 0.00 0.00 52 1011.4
20260508182420 56 181 3.0 3.0 0.00 0.00 0.00 54 1011.4
20260508181915 54 90 1.0 2.0 0.00 0.00 0.00 57 1011.4
20260508181412 55 164 2.0 3.0 0.00 0.00 0.00 57 1011.7
20260508180909 53 91 1.0 2.0 0.00 0.00 0.00 62 1011.7
20260508180406 53 197 2.0 3.0 0.00 0.00 0.00 61 1011.7
20260508175902 53 86 0.0 0.0 0.00 0.00 0.00 57 1011.7
20260508175359 53 99 0.0 0.0 0.00 0.00 0.00 57 1011.7
20260508174857 54 120 0.0 0.0 0.00 0.00 0.00 58 1011.7
20260508174354 54 91 0.0 0.0 0.00 0.00 0.00 58 1011.7
20260508173851 54 203 1.0 2.0 0.00 0.00 0.00 59 1011.7
20260508173348 53 105 0.0 2.0 0.00 0.00 0.00 58 1011.7
20260508172843 52 197 2.0 5.0 0.00 0.00 0.00 58 1011.7
20260508172341 51 191 0.0 2.0 0.00 0.00 0.00 60 1012.0
20260508171837 51 46 0.0 2.0 0.00 0.00 0.00 58 1012.0
20260508171333 52 106 2.0 5.0 0.00 0.00 0.00 58 1012.0
20260508170830 51 234 3.0 5.0 0.00 0.00 0.00 58 1011.7
20260508170329 52 262 3.0 3.0 0.00 0.00 0.00 58 1012.0
20260508165825 52 296 1.0 2.0 0.00 0.00 0.00 59 1012.0
20260508165322 53 199 0.0 2.0 0.00 0.00 0.00 58 1012.0
20260508164818 53 218 0.0 2.0 0.00 0.00 0.00 57 1012.0
20260508164315 53 224 9.0 10.0 0.00 0.00 0.00 54 1012.4
20260508163813 52 332 3.0 7.0 0.00 0.00 0.00 55 1012.0
20260508163310 53 216 2.0 3.0 0.00 0.00 0.00 51 1012.0
20260508162806 53 232 3.0 3.0 0.00 0.00 0.00 52 1012.4
20260508162306 53 141 1.0 2.0 0.00 0.00 0.00 48 1012.0
20260508161800 53 63 0.0 0.0 0.00 0.00 0.00 47 1012.0
20260508161257 53 118 0.0 0.0 0.00 0.00 0.00 45 1012.0
20260508160755 53 228 5.0 7.0 0.00 0.00 0.00 46 1011.7
20260508160253 52 355 1.0 3.0 0.00 0.00 0.00 48 1012.0
20260508155749 53 245 10.0 14.0 0.00 0.00 0.00 45 1011.7
20260508155247 53 20 3.0 3.0 0.00 0.00 0.00 46 1011.7
20260508154743 53 183 3.0 5.0 0.00 0.00 0.00 47 1011.7
20260508154241 53 123 0.0 0.0 0.00 0.00 0.00 49 1011.7
20260508153737 54 126 1.0 2.0 0.00 0.00 0.00 48 1011.7
20260508153235 54 41 1.0 2.0 0.00 0.00 0.00 46 1011.7
20260508152731 55 140 0.0 0.0 0.00 0.00 0.00 45 1011.7
20260508152226 55 104 0.0 0.0 0.00 0.00 0.00 46 1011.7
20260508151723 55 172 3.0 3.0 0.00 0.00 0.00 45 1011.7
20260508151220 54 315 1.0 3.0 0.00 0.00 0.00 46 1011.7
20260508150717 55 218 4.0 5.0 0.00 0.00 0.00 43 1011.4
20260508150213 54 166 2.0 3.0 0.00 0.00 0.00 43 1011.7
20260508145709 54 43 3.0 3.0 0.00 0.00 0.00 46 1011.7
20260508145205 55 120 0.0 0.0 0.00 0.00 0.00 46 1011.4
20260508144703 56 96 1.0 2.0 0.00 0.00 0.00 46 1011.4
20260508144201 55 92 0.0 0.0 0.00 0.00 0.00 45 1011.4
20260508143658 54 99 1.0 2.0 0.00 0.00 0.00 50 1011.7
20260508143155 53 200 6.0 7.0 0.00 0.00 0.00 47 1011.7
20260508142651 53 38 2.0 3.0 0.00 0.00 0.00 48 1012.0
20260508142148 54 176 4.0 5.0 0.00 0.00 0.00 48 1011.7
20260508141644 53 14 0.0 0.0 0.00 0.00 0.00 48 1011.7
20260508141142 53 151 2.0 3.0 0.00 0.00 0.00 49 1011.7
20260508140640 52 21 3.0 3.0 0.00 0.00 0.00 50 1011.7
20260508140136 52 138 1.0 2.0 0.00 0.00 0.00 50 1011.7
20260508135632 53 195 3.0 3.0 0.00 0.00 0.00 51 1011.7
20260508135128 52 93 0.0 2.0 0.00 0.00 0.00 50 1011.7
20260508134625 52 12 2.0 3.0 0.00 0.00 0.00 51 1011.4
20260508134122 52 78 1.0 2.0 0.00 0.00 0.00 50 1011.7
20260508133618 52 45 5.0 7.0 0.00 0.00 0.00 54 1011.7
20260508133116 50 57 1.0 2.0 0.00 0.00 0.00 57 1011.7
20260508132614 50 217 0.0 0.0 0.00 0.00 0.00 56 1011.7
20260508132110 50 156 1.0 3.0 0.00 0.00 0.00 58 1012.0
20260508131606 49 62 0.0 2.0 0.00 0.00 0.00 59 1012.0
20260508131103 49 334 6.0 9.0 0.00 0.00 0.00 60 1012.0
20260508130559 49 17 2.0 5.0 0.00 0.00 0.00 62 1012.4
20260508130056 48 106 0.0 2.0 0.00 0.00 0.00 62 1012.0
20260508125551 48 29 1.0 2.0 0.00 0.00 0.00 61 1012.4
20260508125049 48 222 5.0 5.0 0.00 0.00 0.00 62 1012.0
20260508124548 48 202 5.0 5.0 0.00 0.00 0.00 63 1012.0
20260508124044 47 57 0.0 0.0 0.00 0.00 0.00 64 1012.0
20260508123542 47 185 2.0 3.0 0.00 0.00 0.00 65 1012.4
20260508123039 47 210 0.0 2.0 0.00 0.00 0.00 66 1012.0
20260508122536 46 187 3.0 3.0 0.00 0.00 0.00 66 1012.4
20260508122033 47 30 2.0 3.0 0.00 0.00 0.00 67 1012.4
20260508121531 47 90 1.0 2.0 0.00 0.00 0.00 68 1012.4
20260508121029 47 217 6.0 10.0 0.00 0.00 0.00 67 1012.4
20260508120525 47 194 4.0 9.0 0.00 0.00 0.00 69 1012.4
20260508120024 46 30 1.0 3.0 0.00 0.00 0.00 71 1012.4
20260508115521 46 117 0.0 0.0 0.00 0.00 0.00 72 1012.4
20260508115018 45 194 4.0 10.0 0.00 0.00 0.00 73 1012.4
20260508114515 44 165 1.0 3.0 0.00 0.00 0.00 74 1012.0
20260508114011 44 148 1.0 2.0 0.00 0.00 0.00 74 1012.4
20260508113509 44 152 1.0 2.0 0.00 0.00 0.00 75 1012.4
20260508113006 44 145 0.0 2.0 0.00 0.00 0.00 74 1012.0
20260508112502 44 152 0.0 0.0 0.00 0.00 0.00 74 1012.0
20260508111959 44 192 0.0 0.0 0.00 0.00 0.00 74 1012.4
20260508111456 44 15 3.0 7.0 0.00 0.00 0.00 73 1012.0
20260508110953 44 69 5.0 7.0 0.00 0.00 0.00 73 1012.4
20260508110451 44 172 0.0 0.0 0.00 0.00 0.00 72 1012.0
20260508105950 44 119 0.0 2.0 0.00 0.00 0.00 72 1012.0
20260508105447 44 317 2.0 2.0 0.00 0.00 0.00 71 1012.0
20260508104944 44 10 0.0 0.0 0.00 0.00 0.00 70 1012.0
20260508104442 44 218 2.0 3.0 0.00 0.00 0.00 69 1012.0
20260508103938 44 158 0.0 0.0 0.00 0.00 0.00 68 1012.0
20260508103435 44 89 2.0 2.0 0.00 0.00 0.00 68 1012.0
20260508102932 45 205 1.0 3.0 0.00 0.00 0.00 67 1011.7
20260508102431 45 221 5.0 9.0 0.00 0.00 0.00 66 1011.7
20260508101927 45 245 6.0 7.0 0.00 0.00 0.00 64 1011.7
20260508101425 44 142 0.0 2.0 0.00 0.00 0.00 64 1011.7
20260508100922 44 356 2.0 3.0 0.00 0.00 0.00 64 1011.7
20260508100421 44 177 4.0 5.0 0.00 0.00 0.00 63 1011.4
20260508095916 44 197 3.0 5.0 0.00 0.00 0.00 63 1011.0
20260508095414 44 104 1.0 2.0 0.00 0.00 0.00 62 1011.0
20260508094911 44 198 1.0 2.0 0.00 0.00 0.00 62 1011.4
20260508094408 44 167 1.0 2.0 0.00 0.00 0.00 63 1011.4
20260508093904 43 223 3.0 3.0 0.00 0.00 0.00 64 1011.0
20260508093402 43 156 1.0 2.0 0.00 0.00 0.00 67 1010.7
20260508092859 43 111 0.0 0.0 0.00 0.00 0.00 67 1011.0
20260508092357 43 118 0.0 0.0 0.00 0.00 0.00 68 1011.0
20260508091855 43 118 0.0 0.0 0.00 0.00 0.00 68 1011.4
20260508091351 42 118 0.0 0.0 0.00 0.00 0.00 67 1011.0
20260508090849 42 118 0.0 0.0 0.00 0.00 0.00 67 1011.0
20260508090348 42 118 0.0 0.0 0.00 0.00 0.00 69 1010.7
20260508085843 42 118 0.0 0.0 0.00 0.00 0.00 69 1011.0
20260508085340 42 118 0.0 0.0 0.00 0.00 0.00 69 1010.7
20260508084837 42 118 0.0 0.0 0.00 0.00 0.00 70 1010.7
20260508084333 42 118 0.0 0.0 0.00 0.00 0.00 70 1011.0
20260508083831 42 118 0.0 0.0 0.00 0.00 0.00 70 1011.0
20260508083329 42 118 0.0 0.0 0.00 0.00 0.00 70 1010.7
20260508082828 42 118 0.0 0.0 0.00 0.00 0.00 70 1010.7
20260508082326 42 118 0.0 0.0 0.00 0.00 0.00 69 1010.7
20260508081823 42 118 0.0 0.0 0.00 0.00 0.00 68 1010.7
20260508081320 42 118 0.0 0.0 0.00 0.00 0.00 68 1010.7
20260508080817 42 118 0.0 0.0 0.00 0.00 0.00 67 1010.7
20260508080315 42 118 0.0 0.0 0.00 0.00 0.00 66 1010.7
20260508075811 42 118 0.0 0.0 0.00 0.00 0.00 66 1010.7
20260508075309 42 118 0.0 0.0 0.00 0.00 0.00 65 1010.7
20260508074806 43 118 0.0 0.0 0.00 0.00 0.00 65 1010.7
20260508074303 43 119 0.0 0.0 0.00 0.00 0.00 66 1010.7
20260508073800 43 122 0.0 0.0 0.00 0.00 0.00 64 1010.3
20260508073258 43 119 0.0 0.0 0.00 0.00 0.00 65 1010.3
20260508072754 43 117 0.0 0.0 0.00 0.00 0.00 66 1010.7
20260508072251 43 117 0.0 0.0 0.00 0.00 0.00 65 1010.3
20260508071748 43 117 0.0 0.0 0.00 0.00 0.00 66 1010.3
20260508071246 43 117 0.0 0.0 0.00 0.00 0.00 65 1010.3
20260508070743 43 118 0.0 0.0 0.00 0.00 0.00 64 1010.3
20260508070242 42 125 0.0 0.0 0.00 0.00 0.00 65 1010.3
20260508065739 42 123 0.0 0.0 0.00 0.00 0.00 65 1010.7
20260508065237 42 113 0.0 0.0 0.00 0.00 0.00 64 1010.3
20260508064734 42 130 0.0 0.0 0.00 0.00 0.00 65 1010.7
20260508064232 42 151 1.0 2.0 0.00 0.00 0.00 65 1010.3
20260508063729 42 91 0.0 0.0 0.00 0.00 0.00 66 1010.3
20260508063227 42 153 1.0 2.0 0.00 0.00 0.00 66 1010.3
20260508062724 41 120 0.0 0.0 0.00 0.00 0.00 67 1010.3
20260508062222 41 139 0.0 0.0 0.00 0.00 0.00 69 1010.0
20260508061718 40 126 0.0 0.0 0.00 0.00 0.00 71 1010.0
20260508061215 39 124 0.0 0.0 0.00 0.00 0.00 76 1010.3
20260508060712 39 111 0.0 0.0 0.00 0.00 0.00 78 1010.0
20260508060210 39 108 0.0 0.0 0.00 0.00 0.00 78 1010.0
20260508055705 38 109 0.0 0.0 0.00 0.00 0.00 79 1010.3
20260508055202 38 108 0.0 0.0 0.00 0.00 0.00 79 1010.0
20260508054659 38 108 0.0 0.0 0.00 0.00 0.00 78 1010.0
20260508054156 38 109 0.0 0.0 0.00 0.00 0.00 78 1010.3
20260508053653 38 108 0.0 0.0 0.00 0.00 0.00 78 1010.7
20260508053151 38 109 0.0 0.0 0.00 0.00 0.00 78 1010.3
20260508052648 38 108 0.0 0.0 0.00 0.00 0.00 78 1010.7
20260508052145 39 109 0.0 0.0 0.00 0.00 0.00 78 1010.3
20260508051641 39 108 0.0 0.0 0.00 0.00 0.00 78 1010.3
20260508051137 39 109 0.0 0.0 0.00 0.00 0.00 78 1010.7
20260508050633 39 109 0.0 0.0 0.00 0.00 0.00 78 1010.3
20260508050131 39 109 0.0 0.0 0.00 0.00 0.00 77 1010.3
20260508045626 39 109 0.0 0.0 0.00 0.00 0.00 77 1010.3
20260508045124 40 109 0.0 0.0 0.00 0.00 0.00 77 1010.7
20260508044621 40 109 0.0 0.0 0.00 0.00 0.00 77 1010.3
20260508044117 40 109 0.0 0.0 0.00 0.00 0.00 76 1010.3
20260508043614 40 109 0.0 0.0 0.00 0.00 0.00 76 1010.3
20260508043112 40 109 0.0 0.0 0.00 0.00 0.00 75 1010.3
20260508042608 41 109 0.0 0.0 0.00 0.00 0.00 75 1010.3
20260508042106 41 109 0.0 0.0 0.00 0.00 0.00 75 1010.3
20260508041601 41 110 0.0 0.0 0.00 0.00 0.00 73 1010.3
20260508041058 41 110 0.0 0.0 0.00 0.00 0.00 72 1010.3
20260508040555 41 110 0.0 0.0 0.00 0.00 0.00 72 1010.3
20260508040053 41 110 0.0 0.0 0.00 0.00 0.00 71 1010.0
20260508035549 41 110 0.0 0.0 0.00 0.00 0.00 72 1010.3
20260508035047 41 111 0.0 0.0 0.00 0.00 0.00 71 1010.3
20260508034543 42 110 0.0 0.0 0.00 0.00 0.00 71 1010.0
20260508034041 42 110 0.0 0.0 0.00 0.00 0.00 70 1010.0
20260508033538 42 110 0.0 0.0 0.00 0.00 0.00 69 1010.0
20260508033037 42 111 0.0 0.0 0.00 0.00 0.00 70 1010.0
20260508032532 42 111 0.0 0.0 0.00 0.00 0.00 70 1010.3
20260508032030 42 110 0.0 0.0 0.00 0.00 0.00 70 1010.3
20260508031527 43 111 0.0 0.0 0.00 0.00 0.00 68 1010.3
20260508031022 43 111 0.0 0.0 0.00 0.00 0.00 68 1010.3
20260508030520 43 111 0.0 0.0 0.00 0.00 0.00 68 1010.7
20260508030018 43 111 0.0 0.0 0.00 0.00 0.00 68 1010.3
20260508025513 43 111 0.0 0.0 0.00 0.00 0.00 67 1010.3
20260508025011 44 111 0.0 0.0 0.00 0.00 0.00 65 1010.3
20260508024507 44 111 0.0 0.0 0.00 0.00 0.00 64 1010.7
20260508024004 44 111 0.0 0.0 0.00 0.00 0.00 64 1010.3
20260508023500 45 111 0.0 0.0 0.00 0.00 0.00 63 1010.7
20260508022958 45 111 0.0 0.0 0.00 0.00 0.00 62 1010.3
20260508022453 45 111 0.0 0.0 0.00 0.00 0.00 61 1010.3
20260508021950 45 111 0.0 0.0 0.00 0.00 0.00 62 1010.7
20260508021446 45 111 0.0 0.0 0.00 0.00 0.00 63 1010.3
20260508020942 45 111 0.0 0.0 0.00 0.00 0.00 62 1010.3
20260508020440 45 112 0.0 0.0 0.00 0.00 0.00 62 1010.7
20260508015937 45 111 0.0 0.0 0.00 0.00 0.00 62 1010.3
20260508015435 46 111 0.0 0.0 0.00 0.00 0.00 62 1010.7
20260508014931 46 112 0.0 0.0 0.00 0.00 0.00 60 1010.3
20260508014428 46 112 0.0 0.0 0.00 0.00 0.00 60 1010.7
20260508013924 46 112 0.0 0.0 0.00 0.00 0.00 58 1010.3
20260508013420 47 112 0.0 0.0 0.00 0.00 0.00 59 1010.3
20260508012918 47 141 0.0 0.0 0.00 0.00 0.00 58 1010.3
20260508012414 47 141 0.0 0.0 0.00 0.00 0.00 60 1010.3
20260508011912 47 141 0.0 0.0 0.00 0.00 0.00 58 1010.3
20260508011410 48 141 0.0 0.0 0.00 0.00 0.00 57 1010.0
20260508010907 48 142 0.0 0.0 0.00 0.00 0.00 58 1010.3
20260508010404 48 142 0.0 0.0 0.00 0.00 0.00 56 1010.0
20260508005901 49 142 0.0 0.0 0.00 0.00 0.00 53 1009.7
20260508005358 49 142 0.0 0.0 0.00 0.00 0.00 54 1009.7
20260508004854 49 142 0.0 0.0 0.00 0.00 0.00 51 1009.7
20260508004350 50 142 0.0 0.0 0.00 0.00 0.00 52 1009.7
20260508003847 50 142 0.0 0.0 0.00 0.00 0.00 49 1009.7
20260508003344 51 142 0.0 0.0 0.00 0.00 0.00 48 1009.7
20260508002841 51 142 0.0 0.0 0.00 0.00 0.00 47 1009.7
20260508002338 52 142 0.0 0.0 0.00 0.00 0.00 46 1009.3
20260508001834 52 142 0.0 0.0 0.00 0.00 0.00 45 1009.3
20260508001330 52 142 0.0 0.0 0.00 0.00 0.00 44 1009.3
20260508000827 53 142 0.0 0.0 0.00 0.00 0.00 44 1009.3
20260508000323 53 143 2.0 2.0 0.00 0.00 0.00 43 1009.0
20260507235820 53 142 0.0 0.0 0.00 0.00 0.00 43 1009.0
20260507235317 53 53 1.0 2.0 0.00 0.00 0.00 43 1009.0
20260507234814 54 85 0.0 0.0 0.00 0.00 0.00 42 1009.0
20260507234311 54 110 0.0 0.0 0.00 0.00 0.00 42 1009.0
20260507233807 54 222 0.0 0.0 0.00 0.00 0.00 41 1009.0
20260507233305 54 4 5.0 7.0 0.00 0.00 0.00 40 1009.0
20260507232803 55 203 3.0 3.0 0.00 0.00 0.00 40 1009.0
20260507232259 55 148 2.0 2.0 0.00 0.00 0.00 41 1009.0
20260507231756 56 141 1.0 3.0 0.00 0.00 0.00 40 1008.6
20260507231253 56 113 0.0 0.0 0.00 0.00 0.00 41 1008.6
20260507230749 56 147 0.0 2.0 0.00 0.00 0.00 40 1009.0
20260507230247 56 353 0.0 2.0 0.00 0.00 0.00 38 1009.0
20260507225746 56 234 7.0 10.0 0.00 0.00 0.00 36 1008.6
20260507225243 56 154 3.0 3.0 0.00 0.00 0.00 36 1008.6
20260507224738 57 190 4.0 5.0 0.00 0.00 0.00 36 1009.0
20260507224235 57 144 1.0 2.0 0.00 0.00 0.00 34 1009.0
20260507223732 58 85 1.0 2.0 0.00 0.00 0.00 36 1008.6
20260507223228 58 164 3.0 3.0 0.00 0.00 0.00 35 1009.0
20260507222725 58 232 6.0 9.0 0.00 0.00 0.00 34 1008.6
20260507222222 58 57 6.0 9.0 0.00 0.00 0.00 35 1009.0
20260507221718 58 227 5.0 7.0 0.00 0.00 0.00 34 1008.6
20260507221215 58 32 4.0 5.0 0.00 0.00 0.00 34 1009.0
20260507220711 58 86 3.0 3.0 0.00 0.00 0.00 36 1009.0
20260507220210 58 26 3.0 3.0 0.00 0.00 0.00 35 1009.0
20260507215705 58 141 1.0 2.0 0.00 0.00 0.00 35 1009.0
20260507215203 58 94 4.0 7.0 0.00 0.00 0.00 35 1009.0
20260507214700 58 200 6.0 12.0 0.00 0.00 0.00 35 1009.0
20260507214156 59 14 7.0 14.0 0.00 0.00 0.00 34 1009.0
20260507213652 59 188 2.0 3.0 0.00 0.00 0.00 35 1009.0
20260507213150 59 64 0.0 2.0 0.00 0.00 0.00 35 1009.0
20260507212646 58 225 7.0 9.0 0.00 0.00 0.00 35 1009.0
20260507212143 58 121 1.0 5.0 0.00 0.00 0.00 38 1008.6
20260507211640 58 117 2.0 3.0 0.00 0.00 0.00 38 1009.0
20260507211135 58 41 6.0 9.0 0.00 0.00 0.00 36 1009.0
20260507210633 59 108 3.0 3.0 0.00 0.00 0.00 38 1009.0
20260507210129 59 112 0.0 0.0 0.00 0.00 0.00 38 1008.6
20260507205626 59 72 2.0 3.0 0.00 0.00 0.00 37 1008.6
20260507205123 60 45 12.0 19.0 0.00 0.00 0.00 35 1008.6
20260507204619 59 258 3.0 5.0 0.00 0.00 0.00 37 1008.6
20260507204117 58 232 7.0 9.0 0.00 0.00 0.00 37 1009.0
20260507203614 58 45 5.0 7.0 0.00 0.00 0.00 38 1009.0
20260507203112 57 147 2.0 2.0 0.00 0.00 0.00 39 1009.0
20260507202607 58 65 2.0 2.0 0.00 0.00 0.00 40 1008.6
20260507202104 59 241 7.0 12.0 0.00 0.00 0.00 38 1009.0
20260507201559 58 293 6.0 10.0 0.00 0.00 0.00 40 1008.6
20260507201056 58 29 5.0 9.0 0.00 0.00 0.00 38 1009.0
20260507200551 59 137 2.0 3.0 0.00 0.00 0.00 38 1009.0
20260507200048 58 168 1.0 2.0 0.00 0.00 0.00 38 1009.0
20260507195545 57 238 7.0 10.0 0.00 0.00 0.00 39 1009.0